53.4°F
Current conditions from King Hill
Updated every 5 minutes
 
  Friday September 19, 2014

Station Historical Data
Daily Summary for September 20, 2011 Units:  Metric    English   Both
« Previous Day
Next Day »
Daily Weekly Monthly Yearly Custom
  High: Low: Average:
Temperature: 18.4 °C 10.8 °C 13.6 °C
Dew Point: 15.3 °C 7.4 °C 11.6 °C
Humidity: 96% 65% 88%
Wind Speed: 14.5km/h 1.6km/h 6.4km/h
Wind Gust: 30.6km/h - -
Wind- - SSW
Pressure: 1019.5 hPa 1013.4 hPa -
Precipitation: 11.7 mm    
Historical Graphs
 
 
Tabular Data for September 20, 2011
Time Temperature Dew Point Pressure Wind Wind Speed Wind Gust Humidity Daily Rainfall
00:05 13.4 °C 7.4 °C 1015.5 hPa SSW 3.2 km/h 12.9 km/h 67% 0 mm
00:10 13.5 °C 7.5 °C 1015.5 hPa SSW 3.2 km/h 14.5 km/h 67% 0 mm
00:15 13.5 °C 7.5 °C 1015.5 hPa SSW 3.2 km/h 14.5 km/h 67% 0 mm
00:20 13.5 °C 7.5 °C 1015.5 hPa SSW 3.2 km/h 14.5 km/h 67% 0 mm
00:25 13.4 °C 7.4 °C 1015.5 hPa SSW 3.2 km/h 16.1 km/h 67% 0 mm
00:30 13.4 °C 7.4 °C 1015.5 hPa SW 1.6 km/h 16.1 km/h 67% 0 mm
00:35 13.4 °C 7.4 °C 1015.5 hPa SSW 6.4 km/h 19.3 km/h 67% 0 mm
00:40 13.6 °C 7.6 °C 1015.5 hPa SSW 4.8 km/h 19.3 km/h 67% 0 mm
00:45 13.6 °C 7.4 °C 1015.5 hPa South 6.4 km/h 20.9 km/h 66% 0 mm
00:50 13.7 °C 7.5 °C 1015.1 hPa SSW 12.9 km/h 29 km/h 66% 0 mm
00:55 13.9 °C 7.4 °C 1015.1 hPa SSW 11.3 km/h 30.6 km/h 65% 0 mm
01:00 13.9 °C 7.5 °C 1015.1 hPa SW 9.7 km/h 30.6 km/h 65% 0 mm
01:05 14 °C 7.6 °C 1015.1 hPa SSW 8 km/h 25.7 km/h 65% 0 mm
01:10 13.9 °C 7.5 °C 1015.1 hPa SSW 8 km/h 24.1 km/h 65% 0 mm
01:15 13.8 °C 7.6 °C 1015.1 hPa SSW 8 km/h 25.7 km/h 66% 0 mm
01:20 13.8 °C 7.6 °C 1014.8 hPa SSW 6.4 km/h 25.7 km/h 66% 0 mm
01:25 13.8 °C 7.6 °C 1014.8 hPa SW 6.4 km/h 22.5 km/h 66% 0 mm
01:30 13.7 °C 7.5 °C 1014.8 hPa SSW 9.7 km/h 20.9 km/h 66% 0 mm
01:35 13.7 °C 7.5 °C 1014.8 hPa South 3.2 km/h 20.9 km/h 66% 0 mm
01:45 13.6 °C 7.6 °C 1014.8 hPa SW 3.2 km/h 14.5 km/h 67% 0 mm
01:50 13.6 °C 7.6 °C 1014.8 hPa SSW 9.7 km/h 19.3 km/h 67% 0 mm
01:55 13.7 °C 7.7 °C 1014.4 hPa SSW 8 km/h 19.3 km/h 67% 0 mm
02:00 13.7 °C 7.9 °C 1014.4 hPa SSW 3.2 km/h 19.3 km/h 68% 0 mm
02:05 13.6 °C 7.8 °C 1014.4 hPa SSW 9.7 km/h 20.9 km/h 68% 0 mm
02:10 13.7 °C 7.9 °C 1014.4 hPa SSW 4.8 km/h 20.9 km/h 68% 0 mm
02:15 13.7 °C 7.9 °C 1014.4 hPa SSW 4.8 km/h 27.4 km/h 68% 0 mm
02:20 13.6 °C 7.8 °C 1014.4 hPa SW 8 km/h 27.4 km/h 68% 0 mm
02:25 13.6 °C 7.8 °C 1014.4 hPa SW 9.7 km/h 19.3 km/h 68% 0 mm
02:30 13.6 °C 7.8 °C 1014.4 hPa SW 12.9 km/h 29 km/h 68% 0 mm
02:35 13.4 °C 7.9 °C 1014.4 hPa SSW 11.3 km/h 29 km/h 69% 0 mm
02:40 13.3 °C 8 °C 1014.4 hPa SW 9.7 km/h 25.7 km/h 70% 0 mm
02:45 13.2 °C 8.1 °C 1014.1 hPa SSW 8 km/h 24.1 km/h 71% 0 mm
02:50 13.1 °C 8.1 °C 1014.4 hPa SSW 8 km/h 25.7 km/h 72% 0 mm
02:55 12.9 °C 8.2 °C 1014.4 hPa SW 8 km/h 25.7 km/h 73% 0 mm
03:05 12.8 °C 8.1 °C 1014.1 hPa SSW 3.2 km/h 24.1 km/h 73% 0 mm
03:10 12.7 °C 8.2 °C 1014.1 hPa SSW 6.4 km/h 24.1 km/h 74% 0 mm
03:15 12.7 °C 8 °C 1014.1 hPa SSW 11.3 km/h 22.5 km/h 73% 0 mm
03:20 12.8 °C 8.1 °C 1014.1 hPa SSW 8 km/h 19.3 km/h 73% 0 mm
03:25 12.8 °C 8.3 °C 1014.1 hPa SSW 8 km/h 27.4 km/h 74% 0 mm
03:30 12.6 °C 8.6 °C 1014.1 hPa SW 8 km/h 27.4 km/h 77% 0 mm
03:35 12.2 °C 8.5 °C 1014.1 hPa SW 6.4 km/h 20.9 km/h 78% 0 mm
03:45 11.7 °C 8.8 °C 1014.1 hPa SW 8 km/h 17.7 km/h 82% 0.3 mm
03:50 11.5 °C 8.7 °C 1014.1 hPa SSW 6.4 km/h 17.7 km/h 83% 0.5 mm
03:55 11.4 °C 8.8 °C 1014.1 hPa SW 8 km/h 20.9 km/h 84% 0.5 mm
04:00 11.3 °C 8.8 °C 1014.1 hPa SSW 4.8 km/h 20.9 km/h 85% 0.5 mm
04:10 11.1 °C 8.8 °C 1013.8 hPa SSW 4.8 km/h 17.7 km/h 86% 1.3 mm
04:15 11.1 °C 9 °C 1013.8 hPa SW 4.8 km/h 19.3 km/h 87% 1.5 mm
04:20 10.9 °C 8.9 °C 1013.8 hPa SW 1.6 km/h 19.3 km/h 87% 2 mm
04:25 10.9 °C 9 °C 1013.8 hPa SSW 6.4 km/h 17.7 km/h 88% 2.3 mm
04:30 10.8 °C 8.9 °C 1013.8 hPa SSW 6.4 km/h 19.3 km/h 88% 2.5 mm
04:40 10.8 °C 9.1 °C 1013.8 hPa SSW 6.4 km/h 14.5 km/h 89% 2.8 mm
04:50 10.8 °C 9.2 °C 1013.4 hPa SSW 3.2 km/h 16.1 km/h 90% 3 mm
04:55 10.8 °C 9.2 °C 1013.8 hPa SSW 6.4 km/h 20.9 km/h 90% 3.3 mm
05:00 10.8 °C 9.2 °C 1013.4 hPa SSW 4.8 km/h 20.9 km/h 90% 3.6 mm
05:05 10.8 °C 9.4 °C 1013.4 hPa SSW 4.8 km/h 17.7 km/h 91% 3.8 mm
05:10 10.8 °C 9.4 °C 1013.8 hPa SSW 6.4 km/h 24.1 km/h 91% 4.1 mm
05:15 10.8 °C 9.4 °C 1013.8 hPa SW 4.8 km/h 24.1 km/h 91% 4.6 mm
05:20 10.8 °C 9.4 °C 1013.8 hPa SSW 8 km/h 22.5 km/h 91% 4.6 mm
05:25 10.8 °C 9.6 °C 1013.4 hPa SSW 9.7 km/h 22.5 km/h 92% 4.8 mm
05:30 10.8 °C 9.6 °C 1013.4 hPa SSW 6.4 km/h 24.1 km/h 92% 5.1 mm
05:40 10.8 °C 9.6 °C 1013.4 hPa SSW 6.4 km/h 30.6 km/h 92% 5.3 mm
05:45 10.8 °C 9.6 °C 1013.4 hPa SSW 11.3 km/h 19.3 km/h 92% 5.3 mm
05:50 10.8 °C 9.6 °C 1013.4 hPa SSW 6.4 km/h 22.5 km/h 92% 5.6 mm
05:55 10.8 °C 9.6 °C 1013.4 hPa SSW 4.8 km/h 22.5 km/h 92% 5.6 mm
06:00 10.8 °C 9.6 °C 1013.4 hPa SSW 9.7 km/h 22.5 km/h 92% 5.6 mm
06:05 10.8 °C 9.6 °C 1013.4 hPa SSW 3.2 km/h 22.5 km/h 92% 5.6 mm
06:10 10.9 °C 9.8 °C 1013.4 hPa SSW 9.7 km/h 24.1 km/h 93% 5.6 mm
06:15 10.9 °C 9.8 °C 1013.4 hPa SSW 11.3 km/h 24.1 km/h 93% 5.6 mm
06:20 10.9 °C 9.8 °C 1013.4 hPa SSW 8 km/h 25.7 km/h 93% 5.8 mm
06:25 10.9 °C 9.8 °C 1013.4 hPa SSW 6.4 km/h 25.7 km/h 93% 5.8 mm
06:30 10.9 °C 9.8 °C 1013.4 hPa SSW 9.7 km/h 24.1 km/h 93% 5.8 mm
06:35 11 °C 9.9 °C 1013.4 hPa SSW 8 km/h 24.1 km/h 93% 5.8 mm
06:45 11.1 °C 9.9 °C 1013.4 hPa SSW 9.7 km/h 22.5 km/h 93% 6.1 mm
06:55 11.1 °C 10.2 °C 1013.4 hPa SSW 4.8 km/h 19.3 km/h 94% 6.1 mm
07:00 11.1 °C 10.2 °C 1013.4 hPa SSW 4.8 km/h 20.9 km/h 94% 6.1 mm
07:05 11.2 °C 10.2 °C 1013.4 hPa SSW 6.4 km/h 27.4 km/h 94% 6.4 mm
07:15 11.2 °C 10.3 °C 1013.4 hPa SW 9.7 km/h 25.7 km/h 94% 6.4 mm
07:20 11.3 °C 10.3 °C 1013.8 hPa SW 11.3 km/h 20.9 km/h 94% 6.4 mm
07:25 11.3 °C 10.3 °C 1013.8 hPa SSW 9.7 km/h 20.9 km/h 94% 6.4 mm
07:30 11.3 °C 10.4 °C 1013.8 hPa SSW 8 km/h 22.5 km/h 94% 6.4 mm
07:35 11.4 °C 10.6 °C 1013.8 hPa South 4.8 km/h 27.4 km/h 95% 6.4 mm
07:45 11.5 °C 10.7 °C 1013.8 hPa SSW 4.8 km/h 25.7 km/h 95% 6.6 mm
07:50 11.5 °C 10.7 °C 1013.8 hPa SSW 8 km/h 22.5 km/h 95% 6.6 mm
07:55 11.6 °C 10.8 °C 1013.8 hPa SW 9.7 km/h 20.9 km/h 95% 6.6 mm
08:00 11.6 °C 10.8 °C 1013.8 hPa SSW 4.8 km/h 20.9 km/h 95% 6.9 mm
08:05 11.7 °C 10.9 °C 1013.8 hPa SSW 4.8 km/h 25.7 km/h 95% 6.9 mm
08:10 11.7 °C 10.9 °C 1013.8 hPa SW 11.3 km/h 25.7 km/h 95% 6.9 mm
08:15 11.7 °C 10.9 °C 1013.8 hPa SW 4.8 km/h 24.1 km/h 95% 6.9 mm
08:20 11.8 °C 11 °C 1013.8 hPa SW 3.2 km/h 24.1 km/h 95% 7.1 mm
08:25 11.8 °C 11 °C 1013.8 hPa SW 8 km/h 24.1 km/h 95% 7.1 mm
08:30 11.8 °C 11.1 °C 1013.8 hPa SW 3.2 km/h 20.9 km/h 95% 7.1 mm
08:35 11.8 °C 11.1 °C 1013.8 hPa SSW 9.7 km/h 24.1 km/h 95% 7.1 mm
08:40 11.8 °C 11.1 °C 1014.1 hPa SW 14.5 km/h 24.1 km/h 95% 7.1 mm
08:45 11.9 °C 11.1 °C 1014.1 hPa SW 8 km/h 24.1 km/h 95% 7.1 mm
08:55 11.9 °C 11.2 °C 1014.1 hPa SW 14.5 km/h 25.7 km/h 95% 7.4 mm
09:00 11.9 °C 11.2 °C 1014.1 hPa SSW 9.7 km/h 25.7 km/h 95% 7.4 mm
09:05 12.1 °C 11.3 °C 1014.1 hPa SW 8 km/h 22.5 km/h 95% 7.4 mm
09:10 12.1 °C 11.3 °C 1014.1 hPa SW 8 km/h 22.5 km/h 95% 7.4 mm
09:15 12.1 °C 11.3 °C 1014.1 hPa SW 9.7 km/h 22.5 km/h 95% 7.6 mm
09:20 12.2 °C 11.4 °C 1014.1 hPa SW 11.3 km/h 22.5 km/h 95% 8.1 mm
09:25 12.2 °C 11.4 °C 1014.1 hPa SW 9.7 km/h 25.7 km/h 95% 8.1 mm
09:30 12.2 °C 11.4 °C 1014.1 hPa SW 11.3 km/h 30.6 km/h 95% 8.6 mm
09:35 12.2 °C 11.4 °C 1014.1 hPa SSW 6.4 km/h 30.6 km/h 95% 8.9 mm
09:40 12.3 °C 11.5 °C 1014.4 hPa SSW 9.7 km/h 27.4 km/h 95% 9.1 mm
09:45 12.3 °C 11.6 °C 1014.4 hPa SSW 6.4 km/h 17.7 km/h 95% 9.1 mm
09:50 12.3 °C 11.6 °C 1014.4 hPa SSW 4.8 km/h 17.7 km/h 95% 9.4 mm
10:00 12.4 °C 11.6 °C 1014.4 hPa SSW 8 km/h 25.7 km/h 95% 9.7 mm
10:05 12.4 °C 11.6 °C 1014.4 hPa SSW 8 km/h 25.7 km/h 95% 9.9 mm
10:10 12.4 °C 11.7 °C 1014.8 hPa SSW 4.8 km/h 17.7 km/h 95% 10.2 mm
10:15 12.5 °C 11.7 °C 1014.8 hPa SW 11.3 km/h 19.3 km/h 95% 10.2 mm
10:20 12.6 °C 11.8 °C 1014.8 hPa SW 6.4 km/h 19.3 km/h 95% 10.2 mm
10:25 12.7 °C 11.9 °C 1014.8 hPa SSW 9.7 km/h 20.9 km/h 95% 10.4 mm
10:30 12.7 °C 11.9 °C 1014.8 hPa SW 4.8 km/h 20.9 km/h 95% 10.7 mm
10:35 12.7 °C 11.9 °C 1014.8 hPa SW 9.7 km/h 22.5 km/h 95% 10.7 mm
10:45 12.7 °C 11.9 °C 1014.8 hPa SW 6.4 km/h 20.9 km/h 95% 10.9 mm
10:50 12.7 °C 11.9 °C 1014.8 hPa SW 8 km/h 20.9 km/h 95% 10.9 mm
10:55 12.7 °C 11.9 °C 1014.8 hPa SSW 6.4 km/h 24.1 km/h 95% 11.2 mm
11:00 12.8 °C 12 °C 1015.1 hPa SW 8 km/h 24.1 km/h 95% 11.2 mm
11:05 12.8 °C 12 °C 1015.1 hPa SW 6.4 km/h 20.9 km/h 95% 11.2 mm
11:10 12.8 °C 12 °C 1014.8 hPa SW 6.4 km/h 17.7 km/h 95% 11.4 mm
11:15 12.8 °C 12.1 °C 1015.1 hPa SW 6.4 km/h 17.7 km/h 95% 11.4 mm
11:20 12.9 °C 12.1 °C 1015.1 hPa SW 8 km/h 17.7 km/h 95% 11.4 mm
11:25 12.9 °C 12.2 °C 1015.1 hPa SW 8 km/h 24.1 km/h 95% 11.4 mm
11:30 12.9 °C 12.2 °C 1015.1 hPa WSW 3.2 km/h 24.1 km/h 95% 11.4 mm
11:35 12.9 °C 12.1 °C 1015.1 hPa SW 6.4 km/h 24.1 km/h 95% 11.4 mm
11:40 12.9 °C 12.2 °C 1015.1 hPa SW 6.4 km/h 22.5 km/h 95% 11.4 mm
11:45 13 °C 12.2 °C 1015.1 hPa SSW 6.4 km/h 22.5 km/h 95% 11.4 mm
11:50 13.1 °C 12.3 °C 1015.1 hPa SW 3.2 km/h 20.9 km/h 95% 11.4 mm
11:55 13.1 °C 12.3 °C 1014.8 hPa SSW 9.7 km/h 25.7 km/h 95% 11.4 mm
12:00 13.2 °C 12.4 °C 1015.1 hPa South 6.4 km/h 25.7 km/h 95% 11.4 mm
12:05 13.2 °C 12.4 °C 1015.1 hPa SSW 4.8 km/h 24.1 km/h 95% 11.4 mm
12:10 13.3 °C 12.5 °C 1015.1 hPa SSW 3.2 km/h 19.3 km/h 95% 11.4 mm
12:15 13.4 °C 12.8 °C 1014.8 hPa SSW 6.4 km/h 14.5 km/h 96% 11.4 mm
12:20 13.4 °C 12.8 °C 1014.8 hPa SSW 4.8 km/h 14.5 km/h 96% 11.4 mm
12:30 13.7 °C 13.1 °C 1014.8 hPa SW 6.4 km/h 19.3 km/h 96% 11.4 mm
12:35 13.9 °C 13.3 °C 1014.8 hPa SSW 4.8 km/h 19.3 km/h 96% 11.4 mm
12:40 13.9 °C 13.3 °C 1014.8 hPa SSW 6.4 km/h 19.3 km/h 96% 11.4 mm
12:45 14.1 °C 13.4 °C 1014.8 hPa SW 8 km/h 19.3 km/h 96% 11.4 mm
12:50 14.2 °C 13.4 °C 1014.8 hPa SW 9.7 km/h 19.3 km/h 95% 11.4 mm
12:55 14.4 °C 13.6 °C 1014.8 hPa SSW 4.8 km/h 19.3 km/h 95% 11.4 mm
13:00 14.3 °C 13.5 °C 1014.8 hPa SW 8 km/h 19.3 km/h 95% 11.4 mm
13:05 14.5 °C 13.7 °C 1014.8 hPa SW 6.4 km/h 19.3 km/h 95% 11.4 mm
13:10 14.4 °C 13.5 °C 1014.8 hPa SW 3.2 km/h 19.3 km/h 94% 11.4 mm
13:15 14.4 °C 13.5 °C 1014.8 hPa SW 6.4 km/h 17.7 km/h 94% 11.4 mm
13:20 14.4 °C 13.5 °C 1014.8 hPa SW 6.4 km/h 17.7 km/h 94% 11.4 mm
13:25 14.6 °C 13.6 °C 1014.8 hPa SW 1.6 km/h 14.5 km/h 94% 11.4 mm
13:30 14.6 °C 13.6 °C 1014.8 hPa SSW 8 km/h 22.5 km/h 94% 11.4 mm
13:40 14.7 °C 13.8 °C 1014.8 hPa SSW 4.8 km/h 12.9 km/h 94% 11.4 mm
13:45 14.7 °C 13.6 °C 1014.8 hPa SW 3.2 km/h 19.3 km/h 93% 11.4 mm
13:50 14.9 °C 13.8 °C 1014.8 hPa SSW 6.4 km/h 19.3 km/h 93% 11.4 mm
13:55 15 °C 13.9 °C 1015.1 hPa SW 6.4 km/h 14.5 km/h 93% 11.4 mm
14:00 15.1 °C 13.9 °C 1015.1 hPa Calm   14.5 km/h 93% 11.4 mm
14:05 15 °C 13.7 °C 1015.1 hPa SSW 3.2 km/h 12.9 km/h 92% 11.4 mm
14:10 15 °C 13.6 °C 1015.1 hPa SSW 3.2 km/h 17.7 km/h 91% 11.4 mm
14:15 15 °C 13.6 °C 1015.1 hPa SW 6.4 km/h 17.7 km/h 91% 11.4 mm
14:20 15 °C 13.7 °C 1015.1 hPa SSW 1.6 km/h 14.5 km/h 92% 11.4 mm
14:25 15 °C 13.6 °C 1015.1 hPa SW 4.8 km/h 16.1 km/h 91% 11.4 mm
14:30 15.1 °C 13.7 °C 1015.1 hPa SW 8 km/h 16.1 km/h 91% 11.4 mm
14:40 15.6 °C 14 °C 1015.1 hPa SW 9.7 km/h 19.3 km/h 90% 11.4 mm
14:45 15.8 °C 13.9 °C 1015.1 hPa SW 6.4 km/h 19.3 km/h 89% 11.4 mm
14:50 15.8 °C 13.6 °C 1015.1 hPa SW 8 km/h 20.9 km/h 87% 11.4 mm
14:55 15.7 °C 13.6 °C 1015.5 hPa SW 8 km/h 20.9 km/h 87% 11.4 mm
15:00 15.8 °C 13.6 °C 1015.1 hPa SW 9.7 km/h 20.9 km/h 87% 11.4 mm
15:05 15.8 °C 13.8 °C 1015.1 hPa SW 4.8 km/h 19.3 km/h 88% 11.4 mm
15:10 15.7 °C 13.6 °C 1015.1 hPa SW 6.4 km/h 17.7 km/h 87% 11.4 mm
15:15 15.8 °C 13.8 °C 1015.5 hPa SW 9.7 km/h 20.9 km/h 88% 11.4 mm
15:20 15.9 °C 13.9 °C 1015.5 hPa SW 4.8 km/h 20.9 km/h 88% 11.4 mm
15:25 16.1 °C 14.1 °C 1015.5 hPa SW 4.8 km/h 16.1 km/h 88% 11.4 mm
15:35 16.2 °C 14 °C 1015.5 hPa SW 8 km/h 19.3 km/h 87% 11.4 mm
15:40 16.3 °C 14.3 °C 1015.5 hPa Calm   16.1 km/h 88% 11.4 mm
15:45 16.3 °C 14.1 °C 1015.5 hPa SW 6.4 km/h 16.1 km/h 87% 11.4 mm
15:50 16.3 °C 14.1 °C 1015.5 hPa WSW 1.6 km/h 16.1 km/h 87% 11.4 mm
15:55 16.3 °C 14.3 °C 1015.5 hPa SW 6.4 km/h 14.5 km/h 88% 11.4 mm
16:00 16.5 °C 14.3 °C 1015.5 hPa SW 6.4 km/h 14.5 km/h 87% 11.4 mm
16:05 16.6 °C 14.4 °C 1015.5 hPa SSW 3.2 km/h 14.5 km/h 87% 11.4 mm
16:10 16.5 °C 14.3 °C 1015.5 hPa SW 3.2 km/h 14.5 km/h 87% 11.4 mm
16:15 16.4 °C 14.3 °C 1015.5 hPa SW 3.2 km/h 12.9 km/h 87% 11.4 mm
16:20 16.5 °C 14.3 °C 1015.5 hPa SW 4.8 km/h 14.5 km/h 87% 11.4 mm
16:25 16.6 °C 14.4 °C 1015.5 hPa Calm   16.1 km/h 87% 11.4 mm
16:35 16.8 °C 14.7 °C 1015.8 hPa SSW 3.2 km/h 16.1 km/h 87% 11.4 mm
16:45 17.7 °C 15 °C 1015.8 hPa Calm   16.1 km/h 84% 11.4 mm
16:50 18 °C 15.3 °C 1015.5 hPa Calm   16.1 km/h 84% 11.4 mm
16:55 18.3 °C 15.2 °C 1015.5 hPa SSW 3.2 km/h 11.3 km/h 82% 11.4 mm
17:00 18.4 °C 15.3 °C 1015.5 hPa Calm   12.9 km/h 82% 11.4 mm
17:05 18.4 °C 14.9 °C 1015.5 hPa SW 4.8 km/h 16.1 km/h 80% 11.4 mm
17:10 18.2 °C 14.9 °C 1015.5 hPa SSW 8 km/h 16.1 km/h 81% 11.4 mm
17:15 17.8 °C 14.6 °C 1015.8 hPa SW 4.8 km/h 16.1 km/h 81% 11.4 mm
17:20 17.7 °C 14.6 °C 1015.8 hPa SW 6.4 km/h 12.9 km/h 82% 11.4 mm
17:25 17.6 °C 14.6 °C 1015.8 hPa SW 1.6 km/h 12.9 km/h 83% 11.4 mm
17:30 17.4 °C 14.5 °C 1015.8 hPa Calm   11.3 km/h 83% 11.4 mm
17:35 17.4 °C 14.5 °C 1015.8 hPa SW 1.6 km/h 12.9 km/h 83% 11.4 mm
17:40 17.6 °C 14.6 °C 1015.8 hPa SSW 3.2 km/h 12.9 km/h 83% 11.4 mm
17:45 17.6 °C 14.7 °C 1016.1 hPa Calm   9.7 km/h 83% 11.4 mm
17:50 17.7 °C 14.7 °C 1016.1 hPa WSW 3.2 km/h 11.3 km/h 83% 11.4 mm
17:55 17.6 °C 14.6 °C 1016.1 hPa Calm   11.3 km/h 83% 11.4 mm
18:00 17.4 °C 14.6 °C 1016.1 hPa Calm   9.7 km/h 83% 11.4 mm
18:05 17.1 °C 14.2 °C 1016.1 hPa SSW 4.8 km/h 11.3 km/h 83% 11.4 mm
18:10 16.7 °C 14.1 °C 1016.1 hPa SW 3.2 km/h 11.3 km/h 85% 11.4 mm
18:15 16.5 °C 14.2 °C 1016.1 hPa Calm   11.3 km/h 86% 11.4 mm
18:20 16.4 °C 14.1 °C 1016.5 hPa Calm   1.6 km/h 86% 11.4 mm
18:25 16.3 °C 14.2 °C 1016.5 hPa Calm   1.6 km/h 87% 11.4 mm
18:30 16.3 °C 14.2 °C 1016.5 hPa Calm   1.6 km/h 87% 11.4 mm
18:35 16.3 °C 14.1 °C 1016.5 hPa Calm     87% 11.4 mm
18:40 16.2 °C 14 °C 1016.8 hPa Calm     87% 11.4 mm
18:45 16 °C 13.8 °C 1016.8 hPa Calm     87% 11.4 mm
18:50 15.7 °C 13.3 °C 1016.8 hPa Calm     86% 11.4 mm
18:55 15.3 °C 13.1 °C 1016.8 hPa Calm     87% 11.4 mm
19:00 15 °C 12.8 °C 1016.8 hPa Calm     87% 11.4 mm
19:05 14.7 °C 12.8 °C 1016.8 hPa Calm     88% 11.4 mm
19:10 14.4 °C 12.5 °C 1016.8 hPa Calm     88% 11.4 mm
19:15 14.2 °C 12.4 °C 1016.8 hPa Calm     89% 11.4 mm
19:20 14.2 °C 12.6 °C 1017.2 hPa Calm     90% 11.4 mm
19:25 14.2 °C 12.6 °C 1017.2 hPa Calm     90% 11.4 mm
19:30 13.9 °C 12.3 °C 1017.2 hPa Calm     90% 11.4 mm
19:40 13.6 °C 12 °C 1017.2 hPa Calm     90% 11.4 mm
19:45 13.4 °C 11.8 °C 1017.2 hPa Calm     90% 11.4 mm
19:50 13.6 °C 12.3 °C 1017.5 hPa Calm     92% 11.4 mm
19:55 13.5 °C 12.2 °C 1017.2 hPa Calm     92% 11.4 mm
20:00 13.5 °C 12.2 °C 1017.5 hPa Calm   6.4 km/h 92% 11.4 mm
20:05 13.6 °C 12.3 °C 1017.5 hPa Calm   6.4 km/h 92% 11.4 mm
20:10 13.7 °C 12.6 °C 1017.5 hPa Calm   4.8 km/h 93% 11.4 mm
20:15 13.8 °C 12.7 °C 1017.5 hPa Calm   6.4 km/h 93% 11.4 mm
20:20 13.8 °C 12.7 °C 1017.8 hPa Calm   6.4 km/h 93% 11.4 mm
20:25 13.9 °C 13 °C 1017.8 hPa Calm   6.4 km/h 94% 11.4 mm
20:30 13.9 °C 12.9 °C 1017.8 hPa Calm     94% 11.4 mm
20:35 13.9 °C 12.9 °C 1017.8 hPa SSW 1.6 km/h 4.8 km/h 94% 11.4 mm
20:40 13.9 °C 12.9 °C 1017.8 hPa Calm   8 km/h 94% 11.4 mm
20:45 13.8 °C 12.9 °C 1017.8 hPa SSW 1.6 km/h 11.3 km/h 94% 11.4 mm
20:50 13.8 °C 12.9 °C 1018.2 hPa SSW 4.8 km/h 11.3 km/h 94% 11.4 mm
20:55 13.8 °C 12.9 °C 1018.2 hPa SSW 4.8 km/h 8 km/h 94% 11.4 mm
21:00 13.9 °C 13.1 °C 1018.2 hPa Calm   8 km/h 95% 11.4 mm
21:05 13.8 °C 13 °C 1018.2 hPa Calm   8 km/h 95% 11.4 mm
21:10 13.7 °C 12.8 °C 1018.2 hPa SSW 1.6 km/h 6.4 km/h 94% 11.4 mm
21:15 13.6 °C 12.6 °C 1018.2 hPa Calm   6.4 km/h 94% 11.4 mm
21:20 13.4 °C 12.7 °C 1018.2 hPa SSW 3.2 km/h 6.4 km/h 95% 11.4 mm
21:25 13.4 °C 12.4 °C 1018.5 hPa SSW 1.6 km/h 8 km/h 94% 11.4 mm
21:30 13.2 °C 12.3 °C 1018.5 hPa SSW 3.2 km/h 8 km/h 94% 11.4 mm
21:35 13.2 °C 12.4 °C 1018.5 hPa Calm   8 km/h 95% 11.4 mm
21:40 13.2 °C 12.4 °C 1018.5 hPa Calm   1.6 km/h 95% 11.4 mm
21:45 13.3 °C 12.5 °C 1018.5 hPa SSW 1.6 km/h 6.4 km/h 95% 11.4 mm
21:50 13.2 °C 12.4 °C 1018.5 hPa Calm   6.4 km/h 95% 11.4 mm
21:55 13.2 °C 12.4 °C 1018.5 hPa Calm   4.8 km/h 95% 11.4 mm
22:00 13.2 °C 12.4 °C 1018.5 hPa Calm   1.6 km/h 95% 11.4 mm
22:05 13.3 °C 12.5 °C 1018.8 hPa SSW 3.2 km/h 6.4 km/h 95% 11.4 mm
22:10 13.3 °C 12.5 °C 1018.8 hPa Calm   8 km/h 95% 11.4 mm
22:15 13.2 °C 12.4 °C 1018.8 hPa Calm   8 km/h 95% 11.4 mm
22:20 13.2 °C 12.4 °C 1018.8 hPa SSW 3.2 km/h 6.4 km/h 95% 11.4 mm
22:25 13.2 °C 12.4 °C 1018.8 hPa Calm   6.4 km/h 95% 11.4 mm
22:35 12.9 °C 12.2 °C 1018.8 hPa Calm   1.6 km/h 95% 11.4 mm
22:45 12.8 °C 12 °C 1018.8 hPa SSW 3.2 km/h 6.4 km/h 95% 11.4 mm
22:50 12.7 °C 11.9 °C 1019.2 hPa Calm   6.4 km/h 95% 11.4 mm
22:55 12.8 °C 12 °C 1019.2 hPa Calm   6.4 km/h 95% 11.4 mm
23:00 12.8 °C 12 °C 1019.2 hPa Calm   6.4 km/h 95% 11.4 mm
23:05 12.7 °C 11.9 °C 1019.2 hPa Calm   4.8 km/h 95% 11.4 mm
23:10 12.5 °C 11.7 °C 1019.2 hPa Calm   4.8 km/h 95% 11.4 mm
23:15 12.3 °C 11.6 °C 1019.2 hPa SSW 1.6 km/h 6.4 km/h 95% 11.4 mm
23:20 12.4 °C 11.7 °C 1019.2 hPa Calm   6.4 km/h 95% 11.4 mm
23:30 12.4 °C 11.7 °C 1019.2 hPa Calm   4.8 km/h 95% 11.4 mm
23:35 12.5 °C 11.9 °C 1019.2 hPa Calm   3.2 km/h 96% 11.4 mm
23:40 12.3 °C 11.6 °C 1019.2 hPa Calm   3.2 km/h 95% 11.7 mm
23:45 12.3 °C 11.5 °C 1019.2 hPa SSW 1.6 km/h 6.4 km/h 95% 11.7 mm
23:50 12.2 °C 11.6 °C 1019.5 hPa Calm   6.4 km/h 96% 11.7 mm
23:55 12.2 °C 11.4 °C 1019.5 hPa Calm   4.8 km/h 95% 11.7 mm
Westford Weather
Compliments of Weather Underground

 
 
Current Radar Loop:

Copyright © WestfordWeather.net 2007-2014. All rights reserved.